User: anonymous   Login
Location: Kelowna
(49.8880°N, 119.4960°W)
Time: 12:53:38
(UTC-08:00)
Language:

Envisat - Orbit

View from above orbital plane
View from above orbital plane
View from above satellite
View from above satellite

Ground track
Ground track

The orbit data is extracted from the following two-line orbital elements,

1 27386U 02009A   24052.52944661  .00000254  00000-0  96917-4 0  9994
2 27386  98.2673  17.7723 0001322  91.1423  20.7484 14.38506361151805
Epoch (UTC): 21 February 2024 12:42:24
Eccentricity: 0.0001322
inclination: 98.2673°
perigee height: 762 km
apogee height: 764 km
right ascension of ascending node: 17.7723°
argument of perigee: 91.1423°
revolutions per day: 14.38506361
mean anomaly at epoch: 20.7484°
orbit number at epoch: 15180

The dashed part of the orbit path shows where the satellite is in the earth's shadow,  

DLR